EW2407 Weather Reports


time (UTC)temp
F
wind
direction
speed
knots
gust
knots
rain 1hr
in
rain 24hr
in
rain mn
in
humidity
%
barometer
mb
20260507194527 48 360 0.9 2.6 0.00 0.00 0.00 86 1018.9
20260507193030 48 360 0.0 2.6 0.00 0.00 0.00 87 1018.8
20260507191526 49 360 0.9 3.5 0.00 0.00 0.00 88 1018.6
20260507190022 50 360 1.7 4.3 0.00 0.00 0.00 86 1018.5
20260507184521 51 360 1.7 6.1 0.00 0.00 0.00 85 1018.3
20260507183033 51 360 4.3 9.6 0.00 0.00 0.00 84 1018.2
20260507181519 52 360 5.2 9.6 0.00 0.00 0.00 84 1018.2
20260507180017 52 360 7.0 11.3 0.00 0.00 0.00 86 1017.9
20260507174515 53 360 5.2 11.3 0.00 0.00 0.00 85 1017.8
20260507173014 54 360 7.8 11.3 0.00 0.00 0.00 83 1017.7
20260507171516 54 360 8.7 12.2 0.00 0.00 0.00 84 1017.6
20260507170012 54 360 10.4 13.0 0.00 0.00 0.00 82 1017.5
20260507164511 54 360 7.8 12.2 0.00 0.00 0.00 83 1017.5
20260507163011 54 360 7.8 13.0 0.00 0.00 0.00 83 1017.3
20260507161510 54 360 7.0 12.2 0.00 0.00 0.00 82 1017.4
20260507160025 54 360 7.8 11.3 0.00 0.00 0.00 79 1017.5
20260507154508 55 360 6.1 10.4 0.00 0.00 0.00 79 1017.5
20260507153006 55 360 5.2 9.6 0.00 0.00 0.00 80 1017.5
20260507151504 55 360 6.1 10.4 0.00 0.00 0.00 78 1017.5
20260507150101 55 360 7.0 10.4 0.00 0.00 0.00 79 1017.5
20260507144603 55 360 8.7 11.3 0.00 0.00 0.00 79 1017.5
20260507143108 55 360 7.0 12.2 0.00 0.00 0.00 78 1017.5
20260507141608 55 360 5.2 10.4 0.00 0.00 0.00 79 1017.5
20260507140050 55 360 7.0 10.4 0.00 0.00 0.00 80 1017.5
20260507134548 56 360 7.0 12.2 0.00 0.00 0.00 81 1017.5
20260507133147 56 360 7.8 12.2 0.00 0.00 0.00 80 1017.5
20260507131554 56 360 8.7 11.3 0.00 0.00 0.00 80 1017.4
20260507130045 56 360 7.8 12.2 0.00 0.00 0.00 80 1017.4
20260507124540 56 360 6.1 11.3 0.00 0.00 0.00 79 1017.2
20260507123043 56 360 6.1 10.4 0.00 0.00 0.00 80 1017.1
20260507121543 56 360 6.1 9.6 0.00 0.00 0.00 80 1017.1
20260507120036 56 360 6.1 9.6 0.00 0.00 0.00 81 1017.0
20260507114536 55 360 7.0 9.6 0.00 0.00 0.00 81 1017.0
20260507113035 56 360 7.0 9.6 0.00 0.00 0.00 81 1017.0
20260507111533 56 360 5.2 7.8 0.00 0.00 0.00 78 1017.0
20260507110032 56 360 5.2 8.7 0.00 0.00 0.00 79 1017.0
20260507104531 56 360 5.2 8.7 0.00 0.00 0.00 79 1016.9
20260507103030 55 360 4.3 9.6 0.00 0.00 0.00 79 1016.9
20260507101530 55 360 4.3 9.6 0.00 0.00 0.00 80 1016.9
20260507100035 56 360 3.5 7.0 0.00 0.00 0.00 81 1016.7
20260507094525 55 360 5.2 7.8 0.00 0.00 0.00 82 1016.6
20260507093025 56 360 4.3 6.1 0.00 0.00 0.00 81 1016.6
20260507091524 55 360 3.5 6.1 0.00 0.00 0.00 82 1016.5
20260507090022 55 360 2.6 5.2 0.00 0.00 0.00 82 1016.4
20260507084521 55 360 3.5 5.2 0.00 0.00 0.00 80 1016.3
20260507083019 56 360 2.6 4.3 0.00 0.00 0.00 81 1016.2
20260507081516 55 360 1.7 2.6 0.00 0.00 0.00 80 1016.0
20260507080013 54 360 0.9 3.5 0.00 0.00 0.00 80 1016.0
20260507074510 54 360 0.9 5.2 0.00 0.00 0.00 79 1015.7
20260507073007 53 360 0.0 3.5 0.00 0.00 0.00 77 1015.7
20260507071502 51 360 2.6 6.1 0.00 0.00 0.00 77 1015.5
20260507070000 51 360 2.6 7.8 0.00 0.00 0.00 77 1015.4
20260507064634 51 360 3.5 7.8 0.00 0.00 0.00 77 1015.4
20260507063114 50 360 5.2 7.8 0.00 0.00 0.00 76 1015.2
20260507061555 50 360 4.3 7.8 0.00 0.00 0.00 75 1015.2
20260507060110 49 360 4.3 7.8 0.00 0.00 0.00 75 1015.1
20260507054554 49 360 4.3 7.8 0.00 0.00 0.00 75 1015.1
20260507053047 48 360 5.2 7.0 0.00 0.00 0.00 76 1015.0
20260507051559 47 360 4.3 6.1 0.00 0.00 0.00 78 1014.9
20260507050047 46 360 4.3 7.0 0.00 0.00 0.00 85 1014.9
20260507044541 40 360 0.0 0.9 0.00 0.00 0.00 84 1014.9
20260507043041 39 360 0.0 1.7 0.00 0.00 0.00 83 1014.7
20260507041539 38 360 0.0 2.6 0.00 0.00 0.00 82 1014.6
20260507040037 38 360 0.9 3.5 0.00 0.00 0.00 81 1014.5
20260507034536 38 360 0.0 0.9 0.00 0.00 0.00 81 1014.5
20260507033035 38 360 0.0 0.9 0.00 0.00 0.00 81 1014.4
20260507031535 37 360 0.0 4.3 0.00 0.00 0.00 81 1014.3
20260507030036 37 360 2.6 4.3 0.00 0.00 0.00 82 1014.3
20260507024529 37 360 0.9 3.5 0.00 0.00 0.00 82 1014.2
20260507023026 38 360 0.0 0.9 0.00 0.00 0.00 84 1014.1
20260507021522 39 360 0.0 4.3 0.00 0.00 0.00 85 1014.1
20260507020020 41 360 0.0 0.9 0.00 0.00 0.00 83 1014.2
20260507014514 45 360 0.0 3.5 0.00 0.00 0.00 84 1014.0
20260507013014 45 360 0.9 3.5 0.00 0.00 0.00 85 1013.9
20260507011510 45 360 3.5 6.1 0.00 0.00 0.00 85 1013.9
20260507010010 45 360 4.3 7.8 0.00 0.00 0.00 85 1013.8
20260507004507 45 360 5.2 7.8 0.00 0.00 0.00 85 1013.8
20260507003007 45 360 3.5 7.0 0.00 0.00 0.00 86 1013.7
20260507001508 45 360 4.3 7.8 0.00 0.00 0.00 85 1013.7
20260507000003 46 360 4.3 7.8 0.00 0.00 0.00 85 1013.6
20260506234601 46 360 4.3 7.0 0.00 0.00 0.00 85 1013.6
20260506233100 46 360 4.3 7.8 0.00 0.00 0.00 86 1013.5
20260506231610 46 360 4.3 7.8 0.00 0.00 0.00 88 1013.6
20260506230110 46 360 2.6 7.0 0.00 0.00 0.00 88 1013.4
20260506224553 46 360 4.3 10.4 0.00 0.00 0.00 89 1013.4
20260506223050 47 360 6.1 9.6 0.00 0.00 0.00 90 1013.3
20260506221608 47 360 7.8 11.3 0.00 0.00 0.00 90 1013.3
20260506214547 47 360 8.7 10.4 0.00 0.00 0.00 90 1013.2
20260506213100 48 360 7.0 11.3 0.00 0.00 0.00 90 1013.1
20260506211542 48 360 7.0 10.4 0.00 0.00 0.00 89 1013.0
20260506210051 49 360 7.8 12.2 0.00 0.00 0.00 88 1013.0
20260506204539 49 360 7.8 11.3 0.00 0.00 0.00 86 1012.9
20260506203037 49 360 2.6 7.8 0.00 0.00 0.00 77 1012.9
20260506201539 49 360 1.7 6.1 0.00 0.00 0.00 74 1012.7
20260506200036 50 360 3.5 7.0 0.00 0.00 0.00 73 1012.6